EW0349 Weather Reports


Display with metric or nautical units.
time (UTC)temp
F
wind
direction
speed
MPH
gust
MPH
rain 1hr
in
rain 24hr
in
rain mn
in
humidity
%
barometer
mb
20260502151558 49 307 0.0 3.0 0.00 0.00 0.00 58 1015.9
20260502150103 49 304 0.0 2.0 0.00 0.00 0.00 60 1015.8
20260502123056 48 314 0.0 1.0 0.00 0.00 0.00 59 1015.9
20260502121540 48 313 0.0 1.0 0.00 0.00 0.00 61 1015.9
20260502114543 48 303 0.0 2.0 0.00 0.00 0.00 61 1015.8
20260502113042 48 304 0.0 0.0 0.00 0.00 0.00 63 1015.8
20260502111541 49 304 0.0 0.0 0.00 0.00 0.00 65 1015.7
20260502110038 49 304 0.0 0.0 0.00 0.00 0.00 67 1015.9
20260502104537 49 304 0.0 0.0 0.00 0.00 0.00 68 1015.6
20260502103029 50 304 0.0 0.0 0.00 0.00 0.00 69 1015.8
20260502101528 50 304 0.0 3.0 0.00 0.00 0.00 69 1015.7
20260502091526 51 257 0.0 4.0 0.00 0.00 0.00 70 1016.0
20260502071508 52 305 1.0 5.0 0.00 0.00 0.00 69 1016.5
20260502070006 52 286 0.0 5.0 0.00 0.00 0.00 69 1016.8
20260502064501 52 280 1.0 3.0 0.00 0.00 0.00 69 1016.7
20260502063057 53 248 1.0 3.0 0.00 0.00 0.00 69 1016.7
20260502061553 53 273 0.0 5.0 0.00 0.00 0.00 69 1016.6
20260502060054 53 264 1.0 4.0 0.00 0.00 0.00 69 1016.7
20260502054544 52 240 0.0 5.0 0.00 0.00 0.00 69 1016.7
20260502053046 52 46 0.0 2.0 0.00 0.00 0.00 69 1016.6
20260502051539 53 39 0.0 3.0 0.00 0.00 0.00 70 1016.4
20260502050030 53 38 0.0 2.0 0.00 0.00 0.00 70 1016.3
20260502044525 53 34 0.0 2.0 0.00 0.00 0.00 71 1016.1
20260502043021 53 233 1.0 7.0 0.00 0.00 0.00 71 1016.0
20260502041518 54 163 0.0 2.0 0.00 0.00 0.00 71 1015.8
20260502040021 54 58 0.0 4.0 0.00 0.00 0.00 71 1015.6
20260502034508 55 309 0.0 6.0 0.00 0.00 0.00 71 1015.4
20260502033005 56 221 1.0 5.0 0.00 0.00 0.00 69 1015.3
20260502031603 56 301 1.0 10.0 0.00 0.00 0.00 68 1015.1
20260502030100 57 250 1.0 6.0 0.00 0.00 0.00 67 1014.9
20260502024551 58 286 1.0 6.0 0.00 0.00 0.00 67 1014.7
20260502023106 59 257 0.0 3.0 0.00 0.00 0.00 66 1014.5
20260502021544 60 257 3.0 8.0 0.00 0.00 0.00 66 1014.5
20260502020038 61 292 3.0 8.0 0.00 0.00 0.00 65 1014.5
20260502014539 63 284 2.0 8.0 0.00 0.00 0.00 63 1014.5
20260502013028 64 280 1.0 5.0 0.00 0.00 0.00 62 1014.4
20260502011525 65 309 2.0 6.0 0.00 0.00 0.00 61 1014.3
20260502010020 65 275 3.0 9.0 0.00 0.00 0.00 61 1014.3
20260502004515 67 294 3.0 7.0 0.00 0.00 0.00 57 1014.3
20260502003011 69 255 1.0 6.0 0.00 0.00 0.00 57 1014.3
20260502001508 69 290 2.0 5.0 0.00 0.00 0.00 56 1014.1
20260502000002 70 302 2.0 6.0 0.00 0.00 0.00 55 1014.1
20260501234559 70 36 0.0 4.0 0.00 0.00 0.00 55 1014.2
20260501233054 70 281 1.0 7.0 0.00 0.00 0.00 55 1014.2
20260501231558 70 261 2.0 5.0 0.00 0.00 0.00 53 1014.3
20260501230048 71 290 2.0 6.0 0.00 0.00 0.00 53 1014.5
20260501224545 70 293 0.0 4.0 0.00 0.00 0.00 54 1014.6
20260501223042 70 277 2.0 6.0 0.00 0.00 0.00 51 1014.8
20260501221532 70 188 1.0 7.0 0.00 0.00 0.00 51 1014.9
20260501220027 70 199 1.0 4.0 0.00 0.00 0.00 51 1015.2
20260501214522 69 191 1.0 6.0 0.00 0.00 0.00 51 1015.3
20260501213018 69 213 1.0 4.0 0.00 0.00 0.00 51 1015.4
20260501211514 68 305 1.0 5.0 0.00 0.00 0.00 53 1015.5
20260501210009 67 18 2.0 7.0 0.00 0.00 0.00 54 1015.5
20260501204505 66 91 1.0 5.0 0.00 0.00 0.00 57 1015.8
20260501203108 66 274 3.0 7.0 0.00 0.00 0.00 57 1015.9
20260501201559 65 215 2.0 7.0 0.00 0.00 0.00 61 1016.2
20260501200052 64 259 3.0 7.0 0.00 0.00 0.00 61 1016.3
20260501194548 64 188 1.0 7.0 0.00 0.00 0.00 61 1016.5
20260501193043 64 216 1.0 4.0 0.00 0.00 0.00 62 1016.5
20260501191539 63 193 2.0 7.0 0.00 0.00 0.00 62 1016.7
20260501190037 63 221 2.0 4.0 0.00 0.00 0.00 61 1016.7
20260501184551 61 133 1.0 7.0 0.00 0.00 0.00 63 1016.9
20260501183027 60 170 2.0 5.0 0.00 0.00 0.00 64 1017.0
20260501181521 59 199 2.0 6.0 0.00 0.00 0.00 63 1017.0
20260501180021 58 286 4.0 7.0 0.00 0.00 0.00 64 1017.0
20260501174513 58 243 2.0 6.0 0.00 0.00 0.00 63 1017.0
20260501173007 58 259 2.0 5.0 0.00 0.00 0.00 63 1017.1
20260501171505 57 195 2.0 7.0 0.00 0.00 0.00 62 1017.2
20260501170059 56 206 2.0 5.0 0.00 0.00 0.00 60 1017.1
20260501164604 55 160 1.0 4.0 0.00 0.00 0.00 57 1017.1
20260501163050 53 147 2.0 4.0 0.00 0.00 0.00 50 1017.1
20260501161548 52 211 1.0 5.0 0.00 0.00 0.00 42 1017.1
20260501160042 51 198 0.0 3.0 0.00 0.00 0.00 38 1017.2
20260501154543 51 198 1.0 3.0 0.00 0.00 0.00 35 1017.5
20260501153033 50 212 1.0 4.0 0.00 0.00 0.00 32 1017.4